EDT,Max TemperatureF,Mean TemperatureF,Min TemperatureF,Max Dew PointF,MeanDew PointF,Min DewpointF,Max Humidity, Mean Humidity, Min Humidity, Max Sea Level PressureIn, Mean Sea Level PressureIn, Min Sea Level PressureIn, Max VisibilityMiles, Mean VisibilityMiles, Min VisibilityMiles, Max Wind SpeedMPH, Mean Wind SpeedMPH, Max Gust SpeedMPH,PrecipitationIn, CloudCover, Events, WindDirDegrees
2012-3-1,71,58,44,56,36,26,93,57,20,29.96,29.72,29.64,10,10,9,18,8,32,0.01,0,,261
2012-3-2,50,41,32,44,40,29,92,77,61,30.05,29.87,29.69,10,4,1,8,1,10,0.48,6,Rain-Thunderstorm,135
2012-3-3,62,54,45,46,37,17,93,58,22,29.73,29.63,29.54,10,5,0,15,4,21,0.08,5,Fog-Rain-Thunderstorm,207
2012-3-4,50,42,33,27,20,14,53,40,27,29.92,29.76,29.68,10,10,10,16,5,23,0.00,4,,307
2012-3-5,43,36,29,32,25,18,92,70,48,30.48,30.09,29.93,10,6,0,16,3,23,0.37,5,Fog-Snow,195
2012-3-6,51,37,22,24,20,15,81,56,30,30.67,30.58,30.48,10,10,10,14,6,21,0.00,0,,193
2012-3-7,67,50,33,42,34,23,64,50,36,30.57,30.47,30.36,10,10,10,21,12,32,0.00,0,,198
2012-3-8,72,62,52,50,47,42,83,62,41,30.37,30.18,30.01,10,10,10,25,15,40,0.00,4,,209
2012-3-9,65,53,41,50,26,16,60,40,19,30.35,30.15,30.01,10,10,10,14,6,28,0.01,1,Rain,296
2012-3-10,52,42,32,21,16,12,51,36,21,30.53,30.48,30.36,10,10,10,14,4,15,0.00,0,,43
2012-3-11,65,46,27,29,25,19,75,49,23,30.56,30.46,30.37,10,10,10,16,7,23,0.00,0,,194
2012-3-12,73,57,41,50,37,27,57,42,27,30.37,30.25,30.15,10,10,10,16,9,23,T,1,Rain,199
2012-3-13,81,68,54,55,49,44,86,58,30,30.13,30.07,29.99,10,10,10,14,8,21,T,2,Rain,214
2012-3-14,83,67,51,49,41,32,72,44,16,30.20,30.14,30.08,10,10,10,10,3,13,0.00,0,,230
2012-3-15,84,65,46,47,43,38,76,52,28,30.21,30.15,30.11,10,10,10,12,3,20,0.00,2,,224
2012-3-16,75,63,51,55,51,47,89,67,44,30.19,30.14,30.09,10,9,5,8,2,10,T,3,Rain,135
2012-3-17,77,63,48,54,50,46,96,66,36,30.28,30.21,30.17,10,5,0,10,3,14,0.00,1,Fog,110
2012-3-18,71,60,49,55,52,48,93,77,61,30.35,30.28,30.20,10,8,3,12,2,23,0.00,5,,134
2012-3-19,79,68,56,56,54,52,93,68,43,30.19,30.15,30.09,10,10,7,12,3,13,T,4,,158
2012-3-20,78,66,54,63,58,52,93,75,56,30.25,30.21,30.15,10,8,2,9,2,14,0.02,5,Rain,40
2012-3-21,74,66,57,61,59,55,97,77,57,30.32,30.27,30.20,10,6,2,9,1,10,0.02,7,Rain-Thunderstorm,61
2012-3-22,83,69,55,63,58,54,100,72,43,30.26,30.19,30.06,10,4,0,15,4,18,0.01,3,Fog,187
2012-3-23,84,69,53,61,58,53,93,68,42,30.09,30.01,29.92,10,9,5,12,3,17,0.00,0,,89
2012-3-24,72,67,62,63,59,55,93,80,66,29.93,29.87,29.80,10,5,1,8,2,13,0.30,7,Rain-Thunderstorm,174
2012-3-25,63,58,53,56,53,52,93,83,72,29.83,29.78,29.75,10,6,2,8,2,21,0.64,8,Rain,37
2012-3-26,69,57,44,53,32,14,78,49,20,30.19,29.93,29.79,10,10,10,21,9,30,0.00,1,,354
2012-3-27,59,45,30,23,17,11,58,38,17,30.35,30.28,30.20,10,10,10,12,5,15,0.00,0,,194
2012-3-28,83,63,43,57,42,24,57,44,30,30.18,29.87,29.69,10,9,5,8,9,16,0.02,2,Rain-Thunderstorm,204
2012-3-29,75,62,49,46,36,31,50,38,25,30.01,29.84,29.73,10,10,10,23,9,38,0.00,0,,360
2012-3-30,68,53,38,43,37,33,79,61,42,30.10,29.99,29.85,10,10,10,10,1,14,0.00,2,,183
2012-3-31,77,64,50,53,48,43,80,62,43,29.87,29.77,29.67,10,10,10,14,4,18,0.00,4,,90